Location: *
(40.7765°S, 106.5327°E)
Time: 15:20:18
(UTC+00:00)

Cosmos 2016 Rocket - Pass Details

Date: 26 May 2022
Orbit: 946 x 1001 km, 83.0° (Epoch: 04 July)

Event Time Altitude Azimuth Distance (km) Brightness Sun altitude
Rises 10:39:53 0° 182° (S) 3,678 6.9 -11.6°
Reaches altitude 10° 10:42:32 10° 175° (S) 2,733 6.1 -12.1°
Maximum altitude 10:48:31 46° 103° (ESE) 1,300 4.2 -13.2°
Drops below altitude 10° 10:54:31 10° 30° (NNE) 2,739 6.2 -14.3°
Sets 10:57:09 0° 24° (NNE) 3,687 6.9 -14.8°
